Address 0xa809fa8a5a57154b6dc390ea2f167f12e1023ed3

 
Ad
Ad
Txn Hash Method
Block
From
To
Value [Txn Fee]
0x427d9b74a99916f00d5e3ed85b3b91a3a8e37256854c630809e0e1d75ebbce130x0e107772204170562021-10-20 13:47:162 days 1 hr ago0xa809fa8a5a57154b6dc390ea2f167f12e1023ed3OUT 0x407377e22fa2b5a12f4fdf1867d18a1e4588fbad0 MATIC0.00107705
0xfd8b499c4ffc50025c04fc845cb5f1c92ab03d5a16494ee73b44484009cfcf270x0e107772204163132021-10-20 13:21:422 days 1 hr ago0xa809fa8a5a57154b6dc390ea2f167f12e1023ed3OUT 0x407377e22fa2b5a12f4fdf1867d18a1e4588fbad0 MATIC0.00129375
0xa951d844ab6c917eb7af09ac2504f334efa13041837a254734ce6debb3b0c1e40x0e107772204161912021-10-20 13:17:302 days 1 hr ago0xa809fa8a5a57154b6dc390ea2f167f12e1023ed3OUT 0x407377e22fa2b5a12f4fdf1867d18a1e4588fbad0 MATIC0.007623585
0x0cc2df380fe47b7795b63c91ede5e797141cfe5815fa91d2f5bfbab690c83ce80x0e107772204161872021-10-20 13:17:222 days 1 hr ago0xa809fa8a5a57154b6dc390ea2f167f12e1023ed3OUT 0x407377e22fa2b5a12f4fdf1867d18a1e4588fbad0 MATIC0.00153462
0x5bfbaa7b49fa8eb69bf7c5d3455e8f997ed6d86fef62b6c1856ea96530239d020x0e107772204160482021-10-20 13:10:282 days 1 hr ago0xa809fa8a5a57154b6dc390ea2f167f12e1023ed3OUT 0x407377e22fa2b5a12f4fdf1867d18a1e4588fbad0 MATIC0.001279825
0x81dd42fd0bdd8d17c3e9b41e5ea976b83ce7db1fc562264ff4b122b5b85f57800x0e107772204153492021-10-20 12:42:102 days 2 hrs ago0xa809fa8a5a57154b6dc390ea2f167f12e1023ed3OUT 0x407377e22fa2b5a12f4fdf1867d18a1e4588fbad0 MATIC0.00128007
0x8a7f15eaccb4c8d69f17f7b3492c5c68c54582a5fac854e938c9cc21b83da3cb0x0e107772204153412021-10-20 12:41:542 days 2 hrs ago0xa809fa8a5a57154b6dc390ea2f167f12e1023ed3OUT 0x407377e22fa2b5a12f4fdf1867d18a1e4588fbad0 MATIC0.0051193
0xd1417bd99b10ff42a3e6a9d6856caf20a38f58f068cb35fc722bf5b95723e9320x0e107772204152472021-10-20 12:38:412 days 2 hrs ago0xa809fa8a5a57154b6dc390ea2f167f12e1023ed3OUT 0x407377e22fa2b5a12f4fdf1867d18a1e4588fbad0 MATIC0.0017041275
0x2598d231f113961311b7420a60c37c202bf2182e340e328148ad66feb00d697c0x0e107772204150322021-10-20 12:29:072 days 2 hrs ago0xa809fa8a5a57154b6dc390ea2f167f12e1023ed3OUT 0x407377e22fa2b5a12f4fdf1867d18a1e4588fbad0 MATIC0.00127935
0x149dc2f6997bba9cf26ef1b3c35108073560fe6cc9c4dcbe1725dc8d50aed5e30x0e107772204149812021-10-20 12:27:252 days 2 hrs ago0xa809fa8a5a57154b6dc390ea2f167f12e1023ed3OUT 0x407377e22fa2b5a12f4fdf1867d18a1e4588fbad0 MATIC0.001067025
0x24998b073065834f707f4b74390621f68d5ebce9dd2c1bfa721ef45257fdd94d0x0e107772204147862021-10-20 12:18:412 days 2 hrs ago0xa809fa8a5a57154b6dc390ea2f167f12e1023ed3OUT 0x407377e22fa2b5a12f4fdf1867d18a1e4588fbad0 MATIC0.001068225
0x1d82e4ae0532734b5966ad188409baddfe1138c2b1f4083feeadd4ba722745fa0x0e107772204145032021-10-20 12:05:012 days 3 hrs ago0xa809fa8a5a57154b6dc390ea2f167f12e1023ed3OUT 0x407377e22fa2b5a12f4fdf1867d18a1e4588fbad0 MATIC0.002048688
0xec4dd2e04bcdc7c483b1884437910c107ca08f37c2b10b0d463fab2cb1da76590x0e107772204144342021-10-20 12:01:412 days 3 hrs ago0xa809fa8a5a57154b6dc390ea2f167f12e1023ed3OUT 0x407377e22fa2b5a12f4fdf1867d18a1e4588fbad0 MATIC0.00153525
0x8e86123053cc631a991c270bd8b9dd5acb710caa6206e8df537554d1fe8611d40x0e107772204144052021-10-20 11:59:452 days 3 hrs ago0xa809fa8a5a57154b6dc390ea2f167f12e1023ed3OUT 0x407377e22fa2b5a12f4fdf1867d18a1e4588fbad0 MATIC0.02234984
0x61e1945dd451b5361b72d8f30db37134af1c4d60f6303cba093e227d1d8f53f90x0e107772204143722021-10-20 11:58:232 days 3 hrs ago0xa809fa8a5a57154b6dc390ea2f167f12e1023ed3OUT 0x407377e22fa2b5a12f4fdf1867d18a1e4588fbad0 MATIC0.0122547
0x26b1347346aee331ea96aff661df6fc14861784b22499ff37f5727d1cbc33e9e0x0e107772204141522021-10-20 11:50:512 days 3 hrs ago0xa809fa8a5a57154b6dc390ea2f167f12e1023ed3OUT 0x407377e22fa2b5a12f4fdf1867d18a1e4588fbad0 MATIC0.003022098
0x654ff2a18bd6da6cadc9f6fe8147083659753289b5ae39947d563a46aedd44700x0e107772204140272021-10-20 11:44:492 days 3 hrs ago0xa809fa8a5a57154b6dc390ea2f167f12e1023ed3OUT 0x407377e22fa2b5a12f4fdf1867d18a1e4588fbad0 MATIC0.00153486
0xffb703424151898d3b99d24e37af6d7fc3d5ba28085a7967eefe132aa0b5e3ae0x0e107772204138262021-10-20 11:37:292 days 3 hrs ago0xa809fa8a5a57154b6dc390ea2f167f12e1023ed3OUT 0x407377e22fa2b5a12f4fdf1867d18a1e4588fbad0 MATIC0.001279375
0xee1303d1dddae68d58f63b401d6189323e3f0074c166d21bc1b960ea086fa6a40x0e107772204136802021-10-20 11:32:252 days 3 hrs ago0xa809fa8a5a57154b6dc390ea2f167f12e1023ed3OUT 0x407377e22fa2b5a12f4fdf1867d18a1e4588fbad0 MATIC0.00010442058
0x543559c6dc6d1c5ef14161deb38532118ba1a9cb5261d216ef1efa420da2e6d90x0e107772204135002021-10-20 11:26:132 days 3 hrs ago0xa809fa8a5a57154b6dc390ea2f167f12e1023ed3OUT 0x407377e22fa2b5a12f4fdf1867d18a1e4588fbad0 MATIC0.00154623
0xecc1b48d633af821264fc79a4e194f401e9d82b907427d8ae25fce9daafbbf860x0e107772204132012021-10-20 11:14:272 days 3 hrs ago0xa809fa8a5a57154b6dc390ea2f167f12e1023ed3OUT 0x407377e22fa2b5a12f4fdf1867d18a1e4588fbad0 MATIC0.001279825
0x93826149493ae03252d75a60f662bde704014c64ff8fde58bd4a350cd49d340f0x0e107772204126952021-10-20 10:54:192 days 4 hrs ago0xa809fa8a5a57154b6dc390ea2f167f12e1023ed3OUT 0x407377e22fa2b5a12f4fdf1867d18a1e4588fbad0 MATIC0.0129483
0x1db92fad52a8d287b32a045a9364ee0b2613cd1a726b16388e133288f23a5f9f0x0e107772204124602021-10-20 10:45:352 days 4 hrs ago0xa809fa8a5a57154b6dc390ea2f167f12e1023ed3OUT 0x407377e22fa2b5a12f4fdf1867d18a1e4588fbad0 MATIC0.0042656
0x4a352180167641c14306d82025e890d4b68aab0ff30a7c8c6f794b501691231e0x0e107772204122322021-10-20 10:34:272 days 4 hrs ago0xa809fa8a5a57154b6dc390ea2f167f12e1023ed3OUT 0x407377e22fa2b5a12f4fdf1867d18a1e4588fbad0 MATIC0.00153603
0x0872431c393cc6a577f7300aa010f34a49658df8a95ac945c24b7c32c0277c540x0e107772204120482021-10-20 10:27:492 days 4 hrs ago0xa809fa8a5a57154b6dc390ea2f167f12e1023ed3OUT 0x407377e22fa2b5a12f4fdf1867d18a1e4588fbad0 MATIC0.00153495
[ Download CSV Export 
Parent Txn Hash Block From To Value
Loading

Contract Name:
0 MATIC

Compiler Version
0

Optimization Enabled:
0 MATIC

Other Settings:
-NA-
Block Transaction Gas Used Reward
Age Block Fee Address BC Fee Address Voting Power Jailed Incoming
Block Uncle Number Difficulty Gas Used Reward
Loading
Loading
Make sure to use the "Vote Down" button for any spammy posts, and the "Vote Up" for interesting conversations.